Weather in Vershinino

Russia / Tomsk District     56°13′32″N   84°55′41″E
temp.,
°C
wind,
m/s
gust,
m/s
humid.,
%
clouds,
%
prec.,
mm/h
press.,
hPa
HPBL,
m
8 march, mon
mon801:00−14s369246 0.0 1021105
04:00−12sse2792100 0.0 1020159
07:00−11sse41183100 0.0 1017278
10:00−6s61490100 0.0 1012586
13:00−2s61386100 0.0 1009782
16:00+1s71478100 0.0 10041015
19:00−1ssw71580100 0.0 10021110
22:00−3sw61393100 0.5 10051044
9 march, tue
tue901:00−9w4118992 1.0 1010587
04:00−11wsw4119397 0.0 1015468
07:00−12sw4109498 0.1 1019457
10:00−12sw51191100 0.1 1021565
13:00−9sw51083100 0.1 1023775
16:00−7ssw6118294 0.0 1022877
19:00−9ssw5128597 0.0 1022737
22:00−10ssw5138793 0.0 1021583
10 march, wed
wed1001:00−10ssw5148691 0.0 1020543
04:00−12ssw5138872 0.0 1018472
07:00−12ssw5148886 0.0 1018454
10:00−10sw5108696 0.0 1017480
13:00−8ssw478898 0.0 1017512
16:00−6ssw3588100 0.0 1017452
19:00−8sse2492100 0.0 1014114
22:00−6ese3992100 0.0 1010241
11 march, thu
thu1101:00−1sse41489100 0.0 1004557
04:000ssw71497100 1.3 9991044
07:00+2ssw71598100 1.9 9981200
10:00−7sw8158595 0.1 10031005
13:00−5sw7138297 0.1 10081035
16:00−4sw61186100 0.1 10101156
19:00−6sw61286100 0.3 1013999
22:00−8sw61388100 0.1 1015872
12 march, fri
fri1201:00−10ssw41193100 0.1 1017406
04:00−10sse5128884 0.0 1014384
07:00−6s7159392 1.8 10091188
10:00−8sw7147867 0.8 10091160
13:00−9sw7128150 0.9 10111115
16:00−10sw61079100 0.1 10141071
19:00−13sw51086100 0.1 1015802
22:00−17sw3109378 0.0 1017416